Location: Presov
(49.0000°N, 21.2500°E)
Time: 18:20:34
(UTC+02:00)

Vanguard 1 - All Passes

Search period start: 11 April 2021 00:00
Search period end: 21 April 2021 00:00
Orbit: 648 x 3834 km, 34.3° (Epoch: 10 April)

Date Brightness Start Highest point End Pass type
(mag) Time Alt. Az. Time Alt. Az. Time Alt. Az.
11 Apr - 13:29:56 10° SSE 13:39:05 15° SE 13:49:24 10° E daylight
11 Apr - 15:42:42 10° SSW 16:00:10 38° SSE 16:19:53 10° E daylight
11 Apr - 18:03:02 10° WSW 18:24:16 53° S 18:44:00 10° ESE daylight
11 Apr - 20:27:14 10° W 20:48:45 48° SSW 21:05:01 10° SE visible
11 Apr - 22:54:48 10° W 23:10:30 26° SW 23:21:59 10° S visible
12 Apr - 13:47:09 10° S 13:59:00 21° SE 14:13:05 10° E daylight
12 Apr - 16:02:35 10° SW 16:20:45 43° SSE 16:41:14 10° E daylight
12 Apr - 18:23:47 10° WSW 18:45:14 53° S 19:04:50 10° ESE daylight
12 Apr - 20:48:29 10° W 21:09:25 44° SSW 21:25:16 10° SE visible
12 Apr - 23:17:11 10° W 23:30:30 21° SW 23:40:46 10° S visible
13 Apr - 14:05:35 10° S 14:19:02 26° SE 14:35:37 10° E daylight
13 Apr - 16:22:45 10° SW 16:41:27 47° SSE 17:02:27 10° E daylight
13 Apr - 18:44:39 10° WSW 19:06:12 53° S 19:25:34 10° ESE daylight
13 Apr - 21:09:52 10° W 21:29:58 39° SSW 21:45:17 10° SSE visible
13 Apr - 23:40:31 10° W 23:50:22 16° SW 23:58:31 10° SSW visible
14 Apr - 14:24:42 10° SSW 14:39:14 32° SE 14:57:35 10° E daylight
14 Apr - 16:43:08 10° SW 17:02:16 50° SSE 17:23:33 10° E daylight
14 Apr - 19:05:38 10° WSW 19:27:07 52° SSW 19:46:11 10° ESE daylight
14 Apr - 21:31:25 10° W 21:50:21 34° SW 22:05:01 10° SSE visible
15 Apr - 00:07:18 10° WSW 00:10:07 10° WSW 00:12:47 10° SW visible
15 Apr - 12:32:35 10° SSE 12:39:22 13° ESE 12:47:11 10° E daylight
15 Apr - 14:44:16 10° SSW 14:59:33 37° SSE 15:19:14 10° E daylight
15 Apr - 17:03:41 10° WSW 17:23:10 53° S 17:44:34 10° ESE daylight
15 Apr - 19:26:43 10° W 19:47:58 49° SSW 20:06:39 10° SE visible
15 Apr - 21:53:14 10° W 22:10:36 29° SW 22:24:22 10° S visible
16 Apr - 12:49:29 10° SSE 12:59:11 19° SE 13:11:19 10° E daylight
16 Apr - 15:04:10 10° SW 15:20:02 42° SSE 15:40:41 10° E daylight
16 Apr - 17:24:22 10° WSW 17:44:07 54° S 18:05:28 10° ESE daylight
16 Apr - 19:47:53 10° W 20:08:43 45° SSW 20:26:55 10° SE visible
16 Apr - 22:15:28 10° W 22:30:42 23° SW 22:43:10 10° S visible
17 Apr - 13:07:54 10° S 13:19:08 24° SE 13:34:02 10° E daylight
17 Apr - 15:24:19 10° SW 15:40:40 46° SSE 16:01:59 10° E daylight
17 Apr - 17:45:10 10° WSW 18:05:05 53° S 18:26:17 10° ESE daylight
17 Apr - 20:09:10 10° W 20:29:21 40° SSW 20:46:57 10° SSE visible
17 Apr - 22:38:30 10° W 22:50:40 18° SW 23:01:05 10° SSW visible
18 Apr - 13:27:00 10° SSW 13:39:13 30° SE 13:56:08 10° E daylight
18 Apr - 15:44:40 10° SW 16:01:25 49° SSE 16:23:10 10° E daylight
18 Apr - 18:06:04 10° WSW 18:26:02 52° S 18:46:58 10° ESE daylight
18 Apr - 20:30:38 10° W 20:49:51 35° SW 21:06:41 10° SSE visible
18 Apr - 23:03:34 10° WSW 23:10:30 12° WSW 23:16:53 10° SW visible
19 Apr - 11:37:01 10° SE 11:40:09 11° ESE 11:43:35 10° ESE daylight
19 Apr - 13:46:35 10° SSW 13:59:28 35° SE 14:17:52 10° E daylight
19 Apr - 16:05:10 10° WSW 16:22:16 52° S 16:44:16 10° ESE daylight
19 Apr - 18:27:03 10° W 18:46:56 49° SSW 19:07:28 10° SE daylight
19 Apr - 20:52:20 10° W 21:10:12 30° SW 21:26:00 10° SSE visible
20 Apr - 11:52:41 10° SSE 11:59:55 16° SE 12:09:04 10° E daylight
20 Apr - 14:06:28 10° SSW 14:19:52 40° SSE 14:39:23 10° E daylight
20 Apr - 16:25:47 10° WSW 16:43:10 53° S 17:05:17 10° ESE daylight
20 Apr - 18:48:08 10° W 19:07:45 45° SSW 19:27:46 10° SE daylight
20 Apr - 21:14:28 10° W 21:30:26 24° SW 21:44:47 10° S visible
